Regional Weather Roundup
Issued by NWS Pendleton, OR

Home | Current Version | Previous Version | Text Only | Print | Product List | Glossary On
Versions: 1 2 3 4 5 6 7 8 9 10 11 12 13 14 15 16 17 18 19 20 21 22 23 24 25 26 27 28 29 30 31 32 33 34 35 36 37 38 39 40 41 42 43 44 45 46 47 48 49 50
000
ASUS46 KPDT 200625
RWRPDT
PENDLETON REGIONAL WEATHER ROUNDUP
NATIONAL WEATHER SERVICE PENDLETON OREGON
1100 PM PDT FRI SEP 19 2014

NOTE: FAIR INDICATES FEW OR NO CLOUDS BELOW 12,000 FEET WITH NO
SIGNIFICANT WEATHER AND/OR OBSTRUCTIONS TO VISIBILITY.

# INDICATES UNOFFICIAL STATION AND DATA

WAZ520-200710-
EAST SLOPES OF WASHINGTON CASCADES

CITY            SKY/WX      TMP DP  RH  WIND    PRES   REMARKS
#BUMPING DAM    N/A         54  N/A N/A N2      N/A
#CLE ELUM HS    N/A         56  50  80  CALM    30.06S
#CLE ELUM 2NW   N/A         55  49  80  W1      N/A
#CLE ELUM LAKE  N/A         56  50  80  CALM    30.02S
#CLIFFDEL 2NW   N/A         59  51  75  N1      N/A
#GLENWOOD       N/A         51  48  89  CALM    30.01S
#MANASTASH CYN  N/A         54  45  71  CALM    30.09S
#NELSON 3SW     N/A         54  48  80  CALM    30.23S
#NILE           N/A         56  50  80  CALM    29.32R
#RONALD 2NW     N/A         56  49  77  N1      30.01S
#SNOWDEN        N/A          0  -78  1  CALM    N/A
#TEANAWAY 4NE   N/A         56  51  83  CALM    N/A
#TROUT LAKE 1NE N/A         56  51  83  CALM    30.00S
$$

WAZ521-200710-
SIMCOE HIGHLANDS

CITY            SKY/WX      TMP DP  RH  WIND    PRES   REMARKS
#BICKLETON HS   N/A         64  42  45  N7      30.15S
#CENTERVILLE 4W N/A         66  53  63  NW1     29.81S
#CENTERVILLE 1SWN/A         60  50  69  CALM    29.96R
#GOLDENDALE     N/A         65  51  60  S2      N/A
#GOLDENDALE 1NE N/A         58  47  67  N2      N/A
#GOLDENDALE 1S  N/A         61  52  72  CALM    30.02S
#GOLDENDALE 5WNWN/A         60  51  72  CALM    29.97S
#GOODNOE HILLS  N/A         69  54  59  NW3     29.97R
#LYLE 6NE       N/A         65  54  68  CALM    29.96S
$$

WAZ026-200710-
KITTITAS VALLEY

CITY            SKY/WX      TMP DP  RH  WIND    PRES   REMARKS
ELLENSBURG AP   CLEAR       65  52  63  NW14    30.08S
6HR MIN TEMP:   65; 6HR MAX TEMP:   79;

#ELLENSBURG CWU N/A         63  53  70  NW7     29.97S
#ELLENSBURG 3NE N/A         63  53  70  W5      30.07S
#ELLENSBURG     N/A         67  56  68  NW2     N/A
#KITTITAS 3S    N/A         57  51  80  CALM    30.00R
#THORP 6N       N/A         58  50  75  NW10    30.03F
$$

WAZ027-200710-
YAKIMA VALLEY

CITY            SKY/WX      TMP DP  RH  WIND    PRES   REMARKS
SUNNYSIDE AP    CLOUDY      59  52  78  CALM    30.02R
YAKIMA AIRPORT  CLEAR       65  52  63  NW6     30.05S
6HR MIN TEMP:   64; 6HR MAX TEMP:   83;

YAKIMA-VAGABOND CLEAR       66  51  58  E9      30.07S
#COWICHE 1N     N/A         65  52  63  N6      30.23S
#DONALD 2NE     N/A         68  49  51  S1      30.35S
#GRANDVIEW      N/A         63  51  65  CALM    30.01R
#MABTON         N/A         65  52  63  CALM    30.01R
#MOXEE 2E       N/A         70  40  34  NW8     29.95S
#NACHES 2SW     N/A         65  53  65  W8      30.08R
#OUTLOOK DOT    N/A         N/A N/A N/A N12     N/A
#SELAH 8E       N/A         64  50  60  E2      N/A
#TERRACE HTS    N/A         67  51  56  CALM    29.97R
#TOPPENISH      N/A         69  53  57  NW2     29.92R
#WAPATO 4NE     N/A         68  49  51  S1      30.35S
#WEST VALLEY    N/A         67  53  61  CALM    29.99R
#W YAKIMA       N/A         67  54  63  NE1     30.01R
#WHITE SWAN 5E  N/A         64  54  70  CALM    30.01R
#WILEY CITY 3W  N/A         56  43  62  CALM    30.05R
$$

WAZ028-200710-
LOWER COLUMBIA BASIN...WASHINGTON

CITY            SKY/WX      TMP DP  RH  WIND    PRES   REMARKS
PASCO           CLEAR       61  55  81  NE6     30.02R
6HR MIN TEMP:   60; 6HR MAX TEMP:   85;

PROSSER AWOS    N/A         59  52  78  SW2     30.05R
RICHLAND AWOS   CLEAR       68  52  57  N5      30.02R
#BASIN CITY 5SW N/A         60  53  78  CALM    30.03R
#BENTON CITY    N/A         69  51  53  CALM    29.90R
#CONNELL 5N     N/A         63  51  65  NW1     30.01R
#CONNELL 5NW    N/A         62  52  70  N1      29.97R
#ELTOPIA        N/A         64  52  65  N2      29.97R
#ELTOPIA 6NW    N/A         63  52  67  N2      29.00R
#KENNEWICK 3S   N/A         68  50  53  CALM    29.99R
#PATERSON       N/A         68  51  55  NE7     29.97R
#PROSSER        N/A         68  48  49  SW7     29.98R
#SAGEMOOR 2W    N/A         65  54  68  CALM    29.85R
#TOUCHET 2S     N/A         55  48  77  CALM    29.98R
#WEST PASCO     N/A         67  54  63  CALM    30.01R
$$

WAZ029-200710-
FOOTHILLS OF THE BLUES...WASHINGTON

CITY            SKY/WX      TMP DP  RH  WIND    PRES   REMARKS
WALLA WALLA AP  CLEAR       69  46  44  E9      30.04S
6HR MIN TEMP:   65; 6HR MAX TEMP:   82;

#DAYTON SCHOOL  N/A         60  41  49  N5      30.05S
#LOWDEN 2SE     N/A         59  50  72  E1      29.98R
#PLEASANT VIEW 1N/A         68  47  47  CALM    30.03S
#PRESCOTT       N/A         62  47  58  CALM    29.98R
#SUDBURY        N/A         57  N/A N/A CALM    N/A
#WHITMAN COLLEGEN/A         68  50  53  CALM    30.03S
#WAITSBURG 8N   N/A         64  35  34  CALM    29.97S
#WALLA WALLA 5E N/A         66  45  47  W7      N/A
#WALLA WALLA U  N/A         66  50  56  CALM    29.98S
#WHITMAN MISSIONN/A         59  51  75  CALM    30.00R
$$

WAZ030-200710-
BLUE MOUNTAINS...WASHINGTON

CITY            SKY/WX      TMP DP  RH  WIND    PRES   REMARKS
$$

ORZ009-041-WAZ024-200710-
COLUMBIA RIVER GORGE

CITY            SKY/WX      TMP DP  RH  WIND    PRES   REMARKS
HOOD RIVER AP   CLEAR       63  54  72  CALM    30.04R
THE DALLES AP   CLEAR       73  54  51  NW14    29.99S
6HR MIN TEMP:   72; 6HR MAX TEMP:   87;

#ARLINGTON AIRPON/A         71  54  55  CALM    29.95S
#ARLINGTON HS   N/A         68  52  57  W1      29.89R
#MARYHILL 2W    N/A         71  56  59  W1      N/A
#MOSIER 1S      N/A         69  46  44  CALM    30.03S
#MURDOCK        N/A         75  57  54  N12     30.00R
#RUFUS DOT      N/A         75  55  50  NE6     N/A

$$

ORZ510-200710-
NORTH CENTRAL OREGON

CITY            SKY/WX      TMP DP  RH  WIND    PRES   REMARKS
#CHENOWITH 1W   N/A         65  52  63  W21     N/A
#COW CYN RST AREN/A         63  48  58  NE3     N/A
#DUFUR 9E       N/A         67  52  59  W3      30.04R
#GRASS VALLEY   N/A         58  49  72  S1      N/A
#GRASS VALLEY 1SN/A         64  51  63  CALM    30.01S
#KENT DOT       N/A         60  43  53  SE3     N/A
#MAUPIN SCHOOL  N/A         68  51  55  CALM    28.91R
#MORO SCHOOL    N/A         67  57  70  W5      30.06R
#SHANIKO 5WSW   N/A         61  43  51  NE8     N/A
#SHANIKO 4NW    N/A         62  46  56  NE7     30.13S
#TYGH VALLEY 2NEN/A         64  50  60  CALM    29.99R
#WAPANITIA AIRPON/A         62  50  65  NW1     30.01R
#WASCO DOT      N/A         62  51  67  SE1     N/A
#WASCO 5NE      N/A         64  52  65  W3      29.98R
$$

ORZ511-200710-
CENTRAL OREGON

CITY            SKY/WX      TMP DP  RH  WIND    PRES   REMARKS
BEND AIRPORT    CLEAR       57  45  64  CALM    30.14R
MADRAS AIRPORT  CLEAR       61  48  62  CALM    30.10R
REDMOND AIRPORT CLEAR       52  40  63  CALM    30.11R
6HR MIN TEMP:   52; 6HR MAX TEMP:   80;

#BEND 6E        N/A         60  43  53  CALM    29.93S
#BEND 1SW       N/A         53  41  64  NE1     N/A
#BEND-AWBREY    N/A         60  47  62  CALM    30.01S
#BEND-KIM LN    N/A         59  48  67  CALM    30.11R
#CROOKED RVR RANN/A         65  50  58  N10     29.99R
#CULVER         N/A         60  49  67  CALM    30.06R
#LAKE BILLY CHINN/A         65  30  27  NW1     30.14R
#POWELL BUTTE 3EN/A         59  43  55  S2      N/A
#POWELL BUTTE   N/A         59  44  57  SW1     29.76R
#PRINEVILLE 3N  N/A         59  46  62  CALM    29.97R
#WARM SPRINGS   N/A         69  51  53  CALM    30.03R


ORZ509-200710-
EAST SLOPES OF OREGON CASCADES

CITY            SKY/WX      TMP DP  RH  WIND    PRES   REMARKS
#BLUE BOX PASS  N/A         54   2  12  NE3     N/A
#CAMP SHERMAN   N/A         51  42  71  CALM    30.03S
#LA PINE DOT    N/A         56  35  45  CALM    N/A
#LA PINE 4NW    N/A         54  41  61  CALM    30.06S
#LAVA BUTTE DOT N/A         52  39  61  CALM    N/A
#SISTERS AIRPOR N/A         53  47  80  CALM    29.91S
#SISTERS ODOT   N/A         51  N/A N/A CALM    N/A
#SISTERS 3N     N/A         51  39  63  CALM    N/A
#SUNRIVER       N/A         53  45  74  CALM    29.93R
#SUNRIVER AP    N/A         52  44  74  CALM    29.98R
#SUTTLE LK DOT  N/A         50  46  86  W7      N/A
#TUMALO 3W      N/A         66  48  52  W1      29.89F
#WANOGA BUTTE D N/A         55  42  61  NE3     N/A

$$

ORZ044-200710-
LOWER COLUMBIA BASIN...OREGON

CITY            SKY/WX      TMP DP  RH  WIND    PRES   REMARKS
HERMISTON       CLEAR       62  48  60  S7      30.00R
6HR MIN TEMP:   60; 6HR MAX TEMP:   85;

#BOARDMAN SCHOOLN/A         64  49  58  CALM    29.99R
#BOARDMAN 3W    N/A         59  52  78  CALM    29.71R
#BOARDMAN 8SW   N/A         66  54  65  SW3     29.98R
#ECHO 8SW       N/A         65  45  48  SW7     29.98R
#IONE SCHOOL    N/A         62  47  58  NE1     30.02R
#IRRIGON 4NW    N/A         61  53  75  CALM    N/A
#UMATILLA SCHOOLN/A         63  57  81  E2      30.06R
#UMATILLA       N/A         65  51  60  CALM    29.98R
$$

ORZ507-200710-
NORTHERN FOOTHILLS OF THE BLUES

CITY            SKY/WX      TMP DP  RH  WIND    PRES   REMARKS
PENDLETON AIRPT CLEAR       61  43  51  E8      30.04R
6HR MIN TEMP:   61; 6HR MAX TEMP:   82;

#ADAMS 3WNW     N/A         57  44  62  CALM    30.00R
#ATHENA         N/A         53  43  69  CALM    30.02R
#HELIX SCHOOL   N/A         56  42  59  CALM    30.00R
#HELIX 3N       N/A         64  45  50  E1      30.03R
#HOLDMAN 5SE    N/A         60  43  53  CALM    30.04R
#HOLDMAN 6E     N/A         64  44  48  CALM    29.82R
#M-F GROVE ELEM N/A         67  45  45  W1      30.02R
#M-FREEWATER 5SEN/A         66  48  52  NE7     30.03S
#PENDLETON DNTN N/A         62  38  41  CALM    30.05R
#PDT AQUATIC CTRN/A         63  41  44  CALM    30.06R
#PENDLETON 5NE  N/A         58  45  62  CALM    30.00R
#PDT SUNRIDGE   N/A         61  46  58  CALM    30.05R
#PENDLETON 7NW  N/A         61  44  53  E3      31.48S
#PILOT ROCK     N/A         66  45  47  S6      30.07R
#TUTUILLA       N/A         53  45  74  S1      30.01R
#UMAPINE 2E     N/A         63  50  62  S2      29.99R
#WESTON SCHOOL  N/A         64  43  46  W1      30.02R

$$

ORZ508-200710-
SOUTHERN FOOTHILLS OF THE BLUES

CITY            SKY/WX      TMP DP  RH  WIND    PRES   REMARKS
LEXINGTON       CLEAR       64  46  52  SE9     30.07R
#AJAX           N/A         67  46  47  S2      30.01R
#CONDON SCHOOL  N/A         62  49  62  CALM    30.06R
#CONDON 5W      N/A         64  48  56  N3      30.09S
#FOSSIL SCHOOL  N/A         56  42  59  CALM    30.07R
#HEPPNER EOC    N/A         63  45  52  SE8     29.96R
#HEPPNER 4NE    N/A         62  45  54  S2      30.01R
#LEXINGTON 2SE  N/A         63  46  54  SE7     30.02R
#MIKKALO        N/A         64  47  54  E2      30.06R
#OLEX 4N        N/A         67  52  59  SW1     30.01R
#RUGGS 5NE      N/A         58  40  51  CALM    30.27S
#RUGGS 2SW      N/A         62  45  54  S7      30.02S

$$

ORZ502-503-200710-
BLUE MOUNTAINS

CITY            SKY/WX      TMP DP  RH  WIND    PRES   REMARKS
MEACHAM         CLEAR       47  41  79  CALM    30.16R
6HR MIN TEMP:   47; 6HR MAX TEMP:   72;

#BATTLE MTN DOT N/A         55  49  80  N2      N/A
#HARDMAN 10S    N/A         57  44  62  CALM    30.20S
#HEPPNER 15SE   N/A         51  43  74  SE1     30.09R
#LADD CYN SMT   N/A         50  39  66  N2      N/A
#LADD CREEK ODOTN/A         55  44  66  SW3     N/A
#N POWDER DOT   N/A         55  48  77  NW5     N/A
#PIKES PEAK     N/A         67  46  47  E1      27.99S
#TOLLGATE       N/A         53  43  69  CALM    30.11S
#TOLLGATE 9W    N/A         59  44  57  E2      N/A
#TROY SCHOOL    N/A         61  50  67  CALM    29.88R
#UKIAH          N/A         48  41  77  CALM    30.08R
#WESTON 4E      N/A         62  46  56  E1      29.96S
$$

ORZ505-200710-
JOHN DAY BASIN

CITY            SKY/WX      TMP DP  RH  WIND    PRES   REMARKS
JOHN DAY        CLEAR       60  43  53  E8      30.14R
#JOHN DAY KJDY  N/A         58  46  64  CALM    30.14F
#MONUMENT HS    N/A         62  43  50  CALM    30.08R
#MT. VERNON 5SE N/A         58  43  57  CALM    30.11R
#WINLOCK        N/A         60  45  58  CALM    30.18R
$$

ORZ506-200710-
OCHOCO AND JOHN DAY HIGHLANDS

CITY            SKY/WX      TMP DP  RH  WIND    PRES   REMARKS
#BUCK CREEK DOT N/A         61  46  58  E2      N/A
#HORSE RIDGE DO N/A         48  35  60  CALM    N/A
#KEYES SMT DOT  N/A         59  41  51  E1      N/A
#PAULINA SCHOOL N/A         51  37  59  CALM    30.12R
#PINE MTN OBS   N/A         56  42  59  CALM    N/A
#PRAIRIE CITY   N/A         49  41  74  CALM    30.15R
#SENECA 9NW     N/A         47  37  68  CALM    30.02R
$$

ORZ049-200710-
GRANDE RONDE VALLEY

CITY            SKY/WX      TMP DP  RH  WIND    PRES   REMARKS
LA GRANDE       CLEAR       57  37  47  N5      30.11R
#COVE           N/A         58  47  67  CALM    30.03R
#COVE SCHOOL    N/A         57  44  62  CALM    30.09R
#COVE 6NW       N/A         54  43  66  CALM    30.06R
#ELGIN 3N       N/A         53  40  61  CALM    29.84R
#ELGIN 1E       N/A         54  42  64  CALM    N/A
#IMBLER SCHOOL  N/A         59  44  57  N10     30.07R
#LADD CYN DOT   N/A         60  43  53  SE12    N/A
#LA GRANDE ELEM N/A         60  45  58  CALM    30.09R
#UNION 1S       N/A         58  45  62  CALM    29.92R
$$

ORZ050-200710-
WALLOWA COUNTY

CITY            SKY/WX      TMP DP  RH  WIND    PRES   REMARKS
JOSEPH AIRPORT  CLEAR       52  43  71  S5      30.18R
#ENTERPRISE AP  N/A         55  40  57  NE5     30.09R
#ENTERPRISE HS  N/A         50  43  77  CALM    30.15R
#IMNAHA SCHOOL  N/A         62  45  54  CALM    30.04R
#IMNAHA 10S     N/A         61  44  53  SW5     30.11R
#JOSEPH 3N      N/A         47  40  76  CALM    30.17R
#JOSEPH 3W      N/A         54  43  66  SW2     30.03R
#LOSTINE        N/A         55  45  69  E2      29.84R
#MT HOWARD 8000 N/A         48  41  77  NW1     30.36R
#PROMISE 1S     N/A         54  45  71  NE1     30.16R
#SHEEP RDG 7000 N/A         51  41  68  CALM    30.07R
#WALLOWA SCHOOL N/A         51  45  80  CALM    30.94R



$$



USA.gov is the U.S. government's official web portal to all federal, state and local government web resources and services.